Lorain / Elyria, OH

7:56 PM EDT on May 27, 2018 (GMT -0400)
Lorain County Regional

Weather History for KLPR - December, 2013

Change the Weather History Date:

Monday, December 30, 2013

  Actual Average (KCLE) Record (KCLE)
Temperature  
Mean Temperature 24 °F -  
Max Temperature 28 °F 34 °F 63 °F (1971)
Min Temperature 19 °F 21 °F -12 °F (1880)
Degree Days  
Heating Degree Days 42    
Moisture  
Dew Point 16 °F    
Average Humidity 75    
Maximum Humidity 86    
Minimum Humidity 58    
Precipitation  
Precipitation 0.00 in - - ()
Sea Level Pressure  
Sea Level Pressure 30.15 in    
Wind  
Wind Speed 10 mph (NNW)    
Max Wind Speed 15 mph    
Max Gust Speed 22 mph    
Visibility 7 miles    
Events Rain , Snow    
Averages and records for this station are not official NWS values.
T = Trace of Precipitation, MM = Missing Value Source: NWS Daily Summary

Daily Weather History Graph

Daily Weather History Graph

Search for Another Location

Airport or City:

Astronomy

Dec. 30, 2013 Rise Set
Actual Time 7:54 AM EST 5:08 PM EST
Civil Twilight 7:23 AM EST 5:39 PM EST
Nautical Twilight 6:48 AM EST 6:14 PM EST
Astronomical Twilight 6:14 AM EST 6:48 PM EST
Moon 5:42 AM EST (12/30) 3:41 PM EST (12/30)
Length of Visible Light 10h 16m
Length of Day
9h 14m
Waning Crescent, 5% of the Moon is Illuminated
Dec 30
Waning Crescent
Jan 1
New
Jan 7
First Quarter
Jan 15
Full
Jan 24
Last Quarter

Hourly Weather History & Observations

Time (EST) Temp. Windchill Dew Point Humidity Pressure Visibility Wind Dir Wind Speed Gust Speed Precip Events Conditions
12:53 AM 28.9 °F 18.6 °F 25.0 °F 85% 30.00 in 10.0 mi NNW 12.7 mph - 0.00 in Rain Light Freezing Rain
1:01 AM 28.4 °F 17.0 °F 23.0 °F 80% 29.97 in 10.0 mi NNW 15.0 mph 21.9 mph 0.00 in Rain Light Freezing Rain
1:09 AM 28.4 °F 17.0 °F 21.2 °F 74% 29.98 in 10.0 mi NNW 15.0 mph 21.9 mph 0.00 in   Overcast
1:17 AM 28.4 °F 17.5 °F 21.2 °F 74% 29.98 in 10.0 mi NNW 13.8 mph 20.7 mph 0.00 in   Overcast
1:53 AM 27.0 °F 16.7 °F 21.0 °F 78% 30.02 in 10.0 mi North 11.5 mph - 0.00 in   Overcast
2:53 AM 26.1 °F 17.6 °F 19.9 °F 78% 30.05 in 10.0 mi North 8.1 mph - N/A   Overcast
3:53 AM 26.1 °F 14.5 °F 19.9 °F 78% 30.09 in 1.8 mi NNW 13.8 mph - 0.00 in Snow Light Snow
4:30 AM 24.8 °F 13.4 °F 19.4 °F 80% 30.08 in 1.0 mi NNW 12.7 mph - 0.00 in Snow Light Snow
4:47 AM 24.8 °F 13.4 °F 19.4 °F 80% 30.09 in 0.8 mi NNW 12.7 mph - 0.00 in Snow Light Snow
4:53 AM 24.1 °F 13.1 °F 19.9 °F 84% 30.12 in 0.8 mi NNW 11.5 mph - 0.00 in Snow Light Snow
5:00 AM 24.8 °F 14.0 °F 19.4 °F 80% 30.10 in 1.0 mi NNW 11.5 mph 20.7 mph 0.00 in Snow Light Snow
5:09 AM 24.8 °F 13.4 °F 19.4 °F 80% 30.11 in 1.0 mi NNW 12.7 mph - 0.00 in Snow Light Snow
5:24 AM 23.0 °F 11.7 °F 19.4 °F 86% 30.12 in 0.8 mi NNW 11.5 mph 19.6 mph 0.00 in Snow Light Snow
5:29 AM 23.0 °F 11.7 °F 17.6 °F 80% 30.12 in 1.0 mi NNW 11.5 mph 20.7 mph 0.00 in Snow Light Snow
5:40 AM 23.0 °F 11.7 °F 17.6 °F 80% 30.12 in 0.8 mi NNW 11.5 mph 17.3 mph 0.00 in Snow Light Snow
5:45 AM 21.2 °F 8.9 °F 17.6 °F 86% 30.13 in 1.0 mi NNW 12.7 mph 20.7 mph 0.00 in Snow Light Snow
5:53 AM 21.9 °F 11.0 °F 18.0 °F 85% 30.16 in 0.8 mi NNW 10.4 mph - 0.00 in Snow Light Snow
6:06 AM 21.2 °F 10.1 °F 17.6 °F 86% 30.14 in 1.0 mi NNW 10.4 mph - 0.00 in Snow Light Snow
6:31 AM 21.2 °F 12.6 °F 17.6 °F 86% 30.15 in 0.8 mi NNW 6.9 mph - 0.00 in Snow Light Snow
6:41 AM 21.2 °F 10.9 °F 17.6 °F 86% 30.16 in 1.0 mi NW 9.2 mph - 0.00 in Snow Light Snow
6:53 AM 21.0 °F 9.9 °F 16.0 °F 81% 30.19 in 1.8 mi NNW 10.4 mph - 0.00 in Snow Light Snow
7:00 AM 21.2 °F 10.9 °F 15.8 °F 80% 30.16 in 3.0 mi NNW 9.2 mph - 0.00 in Snow Light Snow
7:21 AM 21.2 °F 10.9 °F 12.2 °F 68% 30.16 in 10.0 mi NNW 9.2 mph - 0.00 in   Overcast
7:53 AM 21.0 °F 12.4 °F 12.0 °F 68% 30.21 in 10.0 mi NNW 6.9 mph - 0.00 in   Overcast
8:53 AM 21.0 °F 12.4 °F 10.9 °F 65% 30.24 in 10.0 mi NNW 6.9 mph - N/A   Overcast
9:53 AM 21.0 °F 13.4 °F 10.9 °F 65% 30.27 in 10.0 mi NW 5.8 mph - N/A   Partly Cloudy
10:53 AM 21.9 °F 12.5 °F 9.0 °F 58% 30.28 in 10.0 mi NW 8.1 mph - N/A   Scattered Clouds
11:53 AM 23.0 °F 18.4 °F 10.9 °F 60% 30.25 in 10.0 mi NW 3.5 mph - N/A   Scattered Clouds
12:53 PM 21.9 °F 14.5 °F 10.9 °F 63% 30.24 in 10.0 mi NNW 5.8 mph - N/A   Overcast
1:26 PM 21.2 °F 13.6 °F 12.2 °F 68% 30.21 in 10.0 mi NNW 5.8 mph - N/A   Overcast
1:34 PM 21.2 °F 14.9 °F 10.4 °F 63% 30.20 in 10.0 mi NNW 4.6 mph - N/A   Overcast
1:53 PM 21.9 °F 15.7 °F 10.9 °F 63% 30.24 in 10.0 mi North 4.6 mph - N/A   Overcast
2:53 PM 21.0 °F 14.6 °F 10.9 °F 65% 30.24 in 10.0 mi North 4.6 mph - N/A   Overcast
3:53 PM 21.0 °F - 10.9 °F 65% 30.23 in 10.0 mi Calm Calm - 0.00 in   Overcast
4:53 PM 19.0 °F - 9.0 °F 65% 30.22 in 10.0 mi Calm Calm - N/A   Overcast
5:53 PM 19.0 °F - 12.0 °F 74% 30.22 in 10.0 mi Calm Calm - N/A   Overcast
6:53 PM 19.9 °F 13.4 °F 12.0 °F 71% 30.21 in 10.0 mi SE 4.6 mph - N/A   Overcast
7:53 PM 19.9 °F - 12.0 °F 71% 30.22 in 10.0 mi Calm Calm - N/A   Overcast
8:53 PM 21.0 °F 16.2 °F 12.9 °F 71% 30.22 in 10.0 mi South 3.5 mph - N/A   Overcast
9:53 PM 21.0 °F 13.4 °F 14.0 °F 74% 30.19 in 10.0 mi South 5.8 mph - N/A   Overcast
10:53 PM 21.9 °F 15.7 °F 14.0 °F 72% 30.17 in 10.0 mi South 4.6 mph - N/A   Overcast
11:53 PM 21.9 °F 17.2 °F 15.1 °F 75% 30.16 in 10.0 mi South 3.5 mph - N/A   Overcast